Location: Eschertshofen
(49.3064°N, 11.5756°E)
Time: 03:33:46
(UTC+00:00)

Cosmos 1943 - Pass Details

Date: 18 September 2020
Orbit: 833 x 850 km, 71.0° (Epoch: 18 October)

Event Time Altitude Azimuth Distance (km) Brightness Sun altitude
Rises 18:01:43 0° 330° (NNW) 3,401 7.0 -7.6°
Reaches altitude 10° 18:04:09 10° 330° (NNW) 2,465 6.3 -8.0°
Maximum altitude 18:09:49 80° 245° (WSW) 861 3.4 -8.9°
Drops below altitude 10° 18:15:28 10° 159° (SSE) 2,460 5.3 -9.8°
Sets 18:17:54 0° 158° (SSE) 3,393 6.0 -10.2°
